This demonstration page uses our WeatherBlox Daily Observations layout. Learn more.

Left ArrowRight Arrow

34.16533, -84.80231

Hourly Observations for March 27, 2020

Temp ( °F °C ) Dew Point ( °F °C ) Humidity (%) Winds ( mph kmh ) Pressure ( in mb ) Visibility ( mi km ) Precip ( " mm )
12:53 am 00:53 Clear 57 13.9 53 11.7 87 87 Calm 29.94 1014 10 16 0.00 0.00
1:53 am 01:53 Clear 56 13.3 53 11.7 90 90 Calm 29.93 1013 10 16 0.00 0.00
2:53 am 02:53 Clear 57 13.9 53 11.7 87 87 Calm 29.91 1013 10 16 0.00 0.00
3:53 am 03:53 Clear 56 13.3 52 11.1 87 87 Calm 29.90 1013 10 16 0.00 0.00
4:53 am 04:53 Clear 56 13.3 53 11.7 90 90 Calm 29.88 1012 10 16 0.00 0.00
5:53 am 05:53 Clear 56 13.3 53 11.7 90 90 Calm 29.89 1012 10 16 0.00 0.00
6:53 am 06:53 Clear 56 13.3 53 11.7 90 90 Calm 29.89 1012 10 16 0.00 0.00
7:53 am 07:53 Sunny 59 15 55 12.8 87 87 Calm 29.92 1013 10 16 0.00 0.00
8:53 am 08:53 Sunny 63 17.2 57 13.9 81 81 Calm 29.95 1014 10 16 0.00 0.00
9:53 am 09:53 Sunny 68 20 59 15 73 73 NNW 5 7 29.97 1015 10 16 0.00 0.00
10:53 am 10:53 Sunny 72 22.2 61 16.1 68 68 Calm 29.97 1015 10 16 0.00 0.00
11:53 am 11:53 Sunny 75 23.9 61 16.1 62 62 VRB 3 6 29.97 1015 10 16 0.00 0.00
12:53 pm 12:53 Sunny 79 26.1 60 15.6 52 52 VRB 3 6 29.94 1014 10 16 0.00 0.00
1:17 pm 13:17 Mostly Cloudy 81 27.2 60 15.6 49 49 Calm 29.92 1013 10 16 0.00 0.00
1:53 pm 13:53 Cloudy 84 28.9 56 13.3 38 38 VRB 3 6 29.92 1013 10 16 0.00 0.00
2:11 pm 14:11 Partly Cloudy 84 28.9 57 13.9 40 40 VRB 7 11 29.90 1013 10 16 0.00 0.00
2:53 pm 14:53 Sunny 85 29.4 56 13.3 37 37 VRB 7 11 29.89 1012 10 16 0.00 0.00
3:53 pm 15:53 Sunny 87 30.6 56 13.3 35 35 VRB 7 11 29.85 1011 10 16 0.00 0.00
4:53 pm 16:53 Sunny 89 31.7 54 12.2 30 30 VRB 7 11 29.85 1011 10 16 0.00 0.00
5:53 pm 17:53 Sunny 88 31.1 49 9.4 26 26 WSW 6 9 29.85 1011 10 16 0.00 0.00
6:53 pm 18:53 Sunny 85 29.4 49 9.4 29 29 Calm 29.86 1011 10 16 0.00 0.00
7:53 pm 19:53 Sunny 79 26.1 51 10.6 38 38 Calm 29.88 1012 10 16 0.00 0.00
8:53 pm 20:53 Clear 79 26.1 56 13.3 45 45 S 7 11 29.88 1012 10 16 0.00 0.00
9:53 pm 21:53 Clear 76 24.4 57 13.9 52 52 S 5 7 29.91 1013 10 16 0.00 0.00
10:53 pm 22:53 Clear 69 20.6 58 14.4 68 68 Calm 29.93 1014 10 16 0.00 0.00
11:53 pm 23:53 Clear 66 18.9 58 14.4 75 75 Calm 29.94 1014 10 16 0.00 0.00

Powered by AerisWeather